STARLINK-5687 (55473 NORAD) Tracking and Keplerian Element Data

This shows tracking and keplerian element data for the satellite.

Feedback or suggestion? Click here.




ElementValue
Catalog55473
NameSTARLINK-5687
Epoch Orbit831
Epoch Day85.25001157
Epoch Year2023
RAAN76.7145
Inclination43.001
Eccentricity0.0001366
Argument of Perigee272.8887
Mean Anonmoly157.341
Mean Motion15.49048142
Decay Rate-0.00224892
L11 55473U 23015AA 23085.25001157 -.00224892 00000+0 -41587-2 0 9999
L22 55473 43.0010 76.7145 0001366 272.8887 157.3410 15.49048142 8313



Live tracking and technical data element details for STARLINK-5687 (NORAD 55473). STARLINK-5687 can be tracked NOW for your location showing map with azimuth and elevation plus other details from your city location.







IsCatalogInMostPopularTable: catalog: 55473, numindb: -1

Insert: records affected: 1


GetName: 55473 STARLINK-5687

Hit Count: inserted at: Tue, 28 Mar 2023 02:17:25 GMT